Trinidad, CO

9:08 PM MDT on May 25, 2017 (GMT -0600)
Stokes

Weather History for KTAD - October, 2012

Change the Weather History Date:

Monday, October 29, 2012

  Actual Average Record
Temperature  
Mean Temperature 52 °F 48 °F  
Max Temperature 71 °F 64 °F 85 °F (1950)
Min Temperature 32 °F 32 °F 7 °F (1993)
Degree Days  
Heating Degree Days 13 17  
Month to date heating degree days 370 358  
Since 1 July heating degree days 446 468  
Cooling Degree Days 0 0  
Month to date cooling degree days 0 0  
Year to date cooling degree days 1175 716  
Growing Degree Days 1 (Base 50)    
Moisture  
Dew Point 20 °F    
Average Humidity 39    
Maximum Humidity 63    
Minimum Humidity 14    
Precipitation  
Precipitation 0.00 in 0.03 in 0.78 in (1969)
Month to date precipitation 0.17  
Sea Level Pressure  
Sea Level Pressure 30.05 in    
Wind  
Wind Speed 8 mph (WSW)    
Max Wind Speed 17 mph    
Max Gust Speed 20 mph    
Visibility 10 miles    
Events      
T = Trace of Precipitation, MM = Missing Value Source: NWS Daily Summary

Daily Weather History Graph

Daily Weather History Graph

Search for Another Location

Airport or City:

Trip Planner

Search our weather history database for the weather conditions in past years. The results will help you decide how hot, cold, wet, or windy it might be!

Date:

Astronomy

Oct. 29, 2012 Rise Set
Actual Time 7:19 AM MDT 6:02 PM MDT
Civil Twilight 6:52 AM MDT 6:29 PM MDT
Nautical Twilight 6:21 AM MDT 6:59 PM MDT
Astronomical Twilight 5:51 AM MDT 7:29 PM MDT
Moon 5:56 PM MDT (10/29) 7:11 AM MDT (10/29)
Length of Visible Light 11h 36m
Length of Day
10h 42m
Full, 100% of the Moon is Illuminated
Oct 29
Full
Oct 29
Full
Nov 6
Last Quarter
Nov 13
New
Nov 20
First Quarter

Hourly Weather History & Observations

Time (MDT) Temp. Windchill Dew Point Humidity Pressure Visibility Wind Dir Wind Speed Gust Speed Precip Events Conditions
12:54 AM 39.0 °F 34.8 °F 24.1 °F 55% 30.05 in 10.0 mi WSW 5.8 mph - N/A   Clear
1:54 AM 35.1 °F 28.6 °F 21.9 °F 59% 30.06 in 10.0 mi NW 8.1 mph - N/A   Clear
3:54 AM 37.0 °F 29.3 °F 21.0 °F 52% 30.03 in 10.0 mi West 11.5 mph - N/A   Clear
5:54 AM 37.0 °F 29.8 °F 21.0 °F 52% 30.07 in 10.0 mi West 10.4 mph - N/A   Clear
6:54 AM 32.0 °F 23.6 °F 21.0 °F 64% 30.12 in 10.0 mi WNW 10.4 mph - N/A   Clear
7:54 AM 37.9 °F 28.9 °F 21.0 °F 51% 30.14 in 10.0 mi WSW 16.1 mph - N/A   Clear
8:54 AM 45.0 °F 39.7 °F 23.0 °F 42% 30.14 in 10.0 mi West 10.4 mph - N/A   Clear
9:54 AM 57.0 °F - 24.1 °F 28% 30.10 in 10.0 mi WSW 6.9 mph - N/A   Clear
10:54 AM 62.1 °F - 23.0 °F 22% 30.06 in 10.0 mi Calm Calm - N/A   Clear
11:54 AM 64.9 °F - 21.0 °F 19% 30.06 in 10.0 mi ESE 4.6 mph - N/A   Clear
12:54 PM 68.0 °F - 19.9 °F 16% 30.01 in 10.0 mi East 4.6 mph - N/A   Clear
2:54 PM 69.1 °F - 18.0 °F 14% 29.98 in 10.0 mi Variable 4.6 mph - N/A   Clear
3:54 PM 70.0 °F - 17.1 °F 13% 29.98 in 10.0 mi SSE 3.5 mph - N/A   Clear
4:54 PM 69.1 °F - 18.0 °F 14% 29.98 in 10.0 mi ESE 9.2 mph - N/A   Clear
5:54 PM 63.0 °F - 19.0 °F 18% 30.01 in 10.0 mi East 4.6 mph - N/A   Clear
6:54 PM 59.0 °F - 19.0 °F 21% 30.05 in 10.0 mi SE 4.6 mph - N/A   Clear
7:54 PM 50.0 °F - 19.0 °F 29% 30.07 in 10.0 mi WNW 3.5 mph - N/A   Clear
8:54 PM 46.0 °F 41.9 °F 19.0 °F 34% 30.08 in 10.0 mi West 8.1 mph - N/A   Clear
9:54 PM 43.0 °F 38.8 °F 19.9 °F 40% 30.06 in 10.0 mi NW 6.9 mph - N/A   Clear
10:54 PM 44.1 °F 37.7 °F 19.9 °F 38% 30.04 in 10.0 mi West 12.7 mph - N/A   Clear
11:54 PM 42.1 °F 36.1 °F 19.9 °F 41% 30.03 in 10.0 mi WNW 10.4 mph - N/A   Clear